Time,TemperatureF,DewpointF,PressureIn,WindDirection,WindDirectionDegrees,WindSpeedMPH,WindSpeedGustMPH,Humidity,HourlyPrecipIn,Conditions,Clouds,dailyrainin,SoftwareType,DateUTC
2013-01-17 00:07:00,35.0,28.0,30.15,WNW,296,3.0,10.0,75,0.00,,,0.03,weatherlink.com 1.10,2013-01-17 06:07:00,
2013-01-17 00:22:00,34.8,28.0,30.16,NW,304,5.0,12.0,75,0.00,,,0.03,weatherlink.com 1.10,2013-01-17 06:22:00,
2013-01-17 00:37:00,34.4,28.0,30.16,WNW,298,5.0,11.0,76,0.00,,,0.03,weatherlink.com 1.10,2013-01-17 06:37:00,
2013-01-17 00:52:00,34.3,28.0,30.16,WNW,296,6.0,9.0,78,0.00,,,0.03,weatherlink.com 1.10,2013-01-17 06:52:00,
2013-01-17 01:07:00,34.3,28.0,30.17,WNW,302,5.0,10.0,78,0.00,,,0.03,weatherlink.com 1.10,2013-01-17 07:07:00,
2013-01-17 01:22:00,34.1,28.0,30.18,NW,321,4.0,9.0,79,0.00,,,0.03,weatherlink.com 1.10,2013-01-17 07:22:00,
2013-01-17 01:37:00,33.6,28.0,30.19,WNW,303,5.0,10.0,80,0.00,,,0.03,weatherlink.com 1.10,2013-01-17 07:37:00,
2013-01-17 01:52:00,33.0,28.0,30.19,WNW,296,4.0,8.0,81,0.00,,,0.03,weatherlink.com 1.10,2013-01-17 07:52:00,
2013-01-17 02:07:00,32.4,28.0,30.20,NW,318,2.0,6.0,82,0.00,,,0.00,weatherlink.com 1.10,2013-01-17 08:07:00,
2013-01-17 02:22:00,31.9,28.0,30.20,NNW,342,6.0,7.0,84,0.00,,,0.00,weatherlink.com 1.10,2013-01-17 08:22:00,
2013-01-17 02:37:00,32.0,28.0,30.21,NNW,346,4.0,8.0,85,0.00,,,0.00,weatherlink.com 1.10,2013-01-17 08:37:00,
2013-01-17 02:52:00,31.7,28.0,30.22,NNW,344,4.0,8.0,86,0.00,,,0.00,weatherlink.com 1.10,2013-01-17 08:52:00,
2013-01-17 03:07:00,31.7,29.0,30.22,North,5,4.0,9.0,88,0.00,,,0.00,weatherlink.com 1.10,2013-01-17 09:07:00,
2013-01-17 03:22:00,31.4,29.0,30.23,North,355,4.0,6.0,90,0.00,,,0.00,weatherlink.com 1.10,2013-01-17 09:22:00,
2013-01-17 03:37:00,31.3,29.0,30.23,North,350,8.0,9.0,91,0.00,,,0.00,weatherlink.com 1.10,2013-01-17 09:37:00,
2013-01-17 03:52:00,31.3,29.0,30.24,North,351,5.0,8.0,91,0.00,,,0.00,weatherlink.com 1.10,2013-01-17 09:52:00,
2013-01-17 04:07:00,31.3,29.0,30.24,NW,324,9.0,11.0,91,0.00,,,0.00,weatherlink.com 1.10,2013-01-17 10:07:00,
2013-01-17 04:22:00,31.1,29.0,30.25,NNE,24,7.0,10.0,90,0.00,,,0.00,weatherlink.com 1.10,2013-01-17 10:22:00,
2013-01-17 04:37:00,30.8,28.0,30.25,NNW,342,4.0,9.0,90,0.00,,,0.00,weatherlink.com 1.10,2013-01-17 10:37:00,
2013-01-17 04:52:00,30.5,28.0,30.26,NNE,33,3.0,8.0,90,0.00,,,0.00,weatherlink.com 1.10,2013-01-17 10:52:00,
2013-01-17 05:07:00,30.9,28.0,30.27,North,355,3.0,10.0,89,0.00,,,0.00,weatherlink.com 1.10,2013-01-17 11:07:00,
2013-01-17 05:23:00,31.6,29.0,30.27,North,360,8.0,14.0,88,0.00,,,0.00,weatherlink.com 1.10,2013-01-17 11:23:00,
2013-01-17 05:38:00,31.7,28.0,30.28,North,5,9.0,13.0,87,0.00,,,0.00,weatherlink.com 1.10,2013-01-17 11:38:00,
2013-01-17 05:53:00,31.9,28.0,30.29,NNW,347,5.0,15.0,86,0.00,,,0.00,weatherlink.com 1.10,2013-01-17 11:53:00,
2013-01-17 06:08:00,31.3,27.0,30.30,NNW,346,6.0,17.0,85,0.00,,,0.00,weatherlink.com 1.10,2013-01-17 12:08:00,
2013-01-17 06:23:00,30.3,27.0,30.31,NW,325,10.0,15.0,87,0.00,,,0.00,weatherlink.com 1.10,2013-01-17 12:23:00,
2013-01-17 06:38:00,29.3,26.0,30.31,NW,323,8.0,18.0,88,0.00,,,0.00,weatherlink.com 1.10,2013-01-17 12:38:00,
2013-01-17 06:53:00,28.2,24.0,30.32,NNW,329,8.0,19.0,85,0.00,,,0.00,weatherlink.com 1.10,2013-01-17 12:53:00,
2013-01-17 07:08:00,27.3,23.0,30.33,NNW,327,9.0,16.0,84,0.00,,,0.00,weatherlink.com 1.10,2013-01-17 13:08:00,
2013-01-17 07:23:00,26.8,23.0,30.34,North,355,8.0,17.0,84,0.00,,,0.00,weatherlink.com 1.10,2013-01-17 13:23:00,
2013-01-17 07:38:00,26.3,22.0,30.34,North,360,12.0,17.0,84,0.00,,,0.00,weatherlink.com 1.10,2013-01-17 13:38:00,
2013-01-17 07:53:00,26.2,22.0,30.35,NW,309,7.0,15.0,83,0.00,,,0.00,weatherlink.com 1.10,2013-01-17 13:53:00,
2013-01-17 08:08:00,26.3,22.0,30.36,North,350,9.0,15.0,84,0.00,,,0.00,weatherlink.com 1.10,2013-01-17 14:08:00,
2013-01-17 08:23:00,26.4,22.0,30.38,North,5,6.0,14.0,82,0.00,,,0.00,weatherlink.com 1.10,2013-01-17 14:23:00,
2013-01-17 08:38:00,26.5,22.0,30.38,North,360,9.0,14.0,82,0.00,,,0.00,weatherlink.com 1.10,2013-01-17 14:38:00,
2013-01-17 08:53:00,26.7,21.0,30.39,North,355,7.0,17.0,79,0.00,,,0.00,weatherlink.com 1.10,2013-01-17 14:53:00,
2013-01-17 09:08:00,27.2,20.0,30.41,NNW,329,9.0,17.0,74,0.00,,,0.00,weatherlink.com 1.10,2013-01-17 15:08:00,
2013-01-17 09:23:00,27.7,19.0,30.41,NNW,340,9.0,12.0,71,0.00,,,0.00,weatherlink.com 1.10,2013-01-17 15:23:00,
2013-01-17 09:38:00,28.0,19.0,30.41,North,360,9.0,13.0,70,0.00,,,0.00,weatherlink.com 1.10,2013-01-17 15:38:00,
2013-01-17 09:53:00,28.5,18.0,30.41,North,355,9.0,15.0,66,0.00,,,0.00,weatherlink.com 1.10,2013-01-17 15:53:00,
2013-01-17 10:08:00,28.9,18.0,30.41,NNW,345,8.0,14.0,65,0.00,,,0.00,weatherlink.com 1.10,2013-01-17 16:08:00,
2013-01-17 10:23:00,29.8,19.0,30.42,NW,314,9.0,14.0,64,0.00,,,0.00,weatherlink.com 1.10,2013-01-17 16:23:00,
2013-01-17 10:38:00,30.1,20.0,30.43,NNW,331,8.0,14.0,65,0.00,,,0.00,weatherlink.com 1.10,2013-01-17 16:38:00,
2013-01-17 10:53:00,29.7,18.0,30.43,WNW,299,10.0,15.0,61,0.00,,,0.00,weatherlink.com 1.10,2013-01-17 16:53:00,
2013-01-17 11:08:00,30.1,19.0,30.43,NW,318,10.0,15.0,64,0.00,,,0.00,weatherlink.com 1.10,2013-01-17 17:08:00,
2013-01-17 11:23:00,30.5,19.0,30.42,NNW,344,9.0,17.0,63,0.00,,,0.00,weatherlink.com 1.10,2013-01-17 17:23:00,
2013-01-17 11:38:00,30.4,17.0,30.42,WNW,291,13.0,20.0,59,0.00,,,0.00,weatherlink.com 1.10,2013-01-17 17:38:00,
2013-01-17 11:53:00,30.3,19.0,30.42,NW,317,13.0,16.0,63,0.00,,,0.00,weatherlink.com 1.10,2013-01-17 17:53:00,
2013-01-17 12:08:00,30.1,18.0,30.41,NNW,344,12.0,18.0,60,0.00,,,0.00,weatherlink.com 1.10,2013-01-17 18:08:00,
2013-01-17 12:23:00,30.5,18.0,30.42,NW,325,9.0,15.0,60,0.00,,,0.00,weatherlink.com 1.10,2013-01-17 18:23:00,
2013-01-17 12:38:00,30.7,18.0,30.42,NW,309,12.0,17.0,59,0.00,,,0.00,weatherlink.com 1.10,2013-01-17 18:38:00,
2013-01-17 12:54:00,30.8,18.0,30.42,NNW,327,12.0,20.0,59,0.00,,,0.00,weatherlink.com 1.10,2013-01-17 18:54:00,
2013-01-17 13:09:00,31.5,19.0,30.41,NW,315,7.0,16.0,59,0.00,,,0.00,weatherlink.com 1.10,2013-01-17 19:09:00,
2013-01-17 13:24:00,31.2,18.0,30.41,North,360,7.0,18.0,58,0.00,,,0.00,weatherlink.com 1.10,2013-01-17 19:24:00,
2013-01-17 13:39:00,31.5,18.0,30.41,North,355,8.0,17.0,58,0.00,,,0.00,weatherlink.com 1.10,2013-01-17 19:39:00,
2013-01-17 13:54:00,32.0,19.0,30.41,NNW,336,6.0,16.0,58,0.00,,,0.00,weatherlink.com 1.10,2013-01-17 19:54:00,
2013-01-17 14:09:00,32.0,19.0,30.42,NNW,344,7.0,20.0,58,0.00,,,0.00,weatherlink.com 1.10,2013-01-17 20:09:00,
2013-01-17 14:24:00,32.1,18.0,30.42,NNW,344,6.0,20.0,57,0.00,,,0.00,weatherlink.com 1.10,2013-01-17 20:24:00,
2013-01-17 14:39:00,32.6,19.0,30.41,NW,317,5.0,14.0,57,0.00,,,0.00,weatherlink.com 1.10,2013-01-17 20:39:00,
2013-01-17 14:54:00,32.4,19.0,30.41,NNW,340,7.0,17.0,58,0.00,,,0.00,weatherlink.com 1.10,2013-01-17 20:54:00,
2013-01-17 15:09:00,32.6,20.0,30.41,NW,311,9.0,15.0,59,0.00,,,0.00,weatherlink.com 1.10,2013-01-17 21:09:00,
2013-01-17 15:24:00,32.6,20.0,30.42,NW,326,7.0,11.0,61,0.00,,,0.00,weatherlink.com 1.10,2013-01-17 21:24:00,
2013-01-17 15:39:00,32.5,21.0,30.43,NW,324,6.0,11.0,62,0.00,,,0.00,weatherlink.com 1.10,2013-01-17 21:39:00,
2013-01-17 15:54:00,32.4,21.0,30.43,North,355,5.0,10.0,63,0.00,,,0.00,weatherlink.com 1.10,2013-01-17 21:54:00,
2013-01-17 16:09:00,31.9,20.0,30.43,WNW,296,6.0,12.0,62,0.00,,,0.00,weatherlink.com 1.10,2013-01-17 22:09:00,
2013-01-17 16:24:00,31.5,21.0,30.44,NW,323,4.0,10.0,64,0.00,,,0.00,weatherlink.com 1.10,2013-01-17 22:24:00,
2013-01-17 16:39:00,30.9,21.0,30.45,NNW,337,6.0,7.0,66,0.00,,,0.00,weatherlink.com 1.10,2013-01-17 22:39:00,
2013-01-17 16:54:00,30.2,20.0,30.45,NW,325,5.0,8.0,67,0.00,,,0.00,weatherlink.com 1.10,2013-01-17 22:54:00,
2013-01-17 17:09:00,29.8,20.0,30.45,NNW,334,3.0,4.0,68,0.00,,,0.00,weatherlink.com 1.10,2013-01-17 23:09:00,
2013-01-17 17:24:00,29.2,20.0,30.46,NW,320,1.0,5.0,68,0.00,,,0.00,weatherlink.com 1.10,2013-01-17 23:24:00,
2013-01-17 17:39:00,29.0,20.0,30.46,NW,317,0.0,3.0,69,0.00,,,0.00,weatherlink.com 1.10,2013-01-17 23:39:00,
2013-01-17 17:54:00,28.8,20.0,30.47,NW,316,1.0,3.0,69,0.00,,,0.00,weatherlink.com 1.10,2013-01-17 23:54:00,
2013-01-17 18:09:00,28.5,20.0,30.47,NW,314,1.0,2.0,70,0.00,,,0.00,weatherlink.com 1.10,2013-01-18 00:09:00,
2013-01-17 18:24:00,28.3,20.0,30.46,NW,306,1.0,3.0,70,0.00,,,0.00,weatherlink.com 1.10,2013-01-18 00:24:00,
2013-01-17 18:39:00,28.1,20.0,30.47,NW,306,0.0,2.0,71,0.00,,,0.00,weatherlink.com 1.10,2013-01-18 00:39:00,
2013-01-17 18:54:00,27.5,20.0,30.47,NW,304,0.0,1.0,74,0.00,,,0.00,weatherlink.com 1.10,2013-01-18 00:54:00,
2013-01-17 19:09:00,27.0,20.0,30.47,NW,304,0.0,0.0,74,0.00,,,0.00,weatherlink.com 1.10,2013-01-18 01:09:00,
2013-01-17 19:24:00,26.6,20.0,30.47,NW,304,0.0,0.0,75,0.00,,,0.00,weatherlink.com 1.10,2013-01-18 01:24:00,
2013-01-17 19:39:00,26.1,19.0,30.48,NW,304,0.0,0.0,75,0.00,,,0.00,weatherlink.com 1.10,2013-01-18 01:39:00,
2013-01-17 19:54:00,25.9,19.0,30.48,NW,304,0.0,1.0,75,0.00,,,0.00,weatherlink.com 1.10,2013-01-18 01:54:00,
2013-01-17 20:09:00,26.2,19.0,30.48,West,266,1.0,3.0,73,0.00,,,0.00,weatherlink.com 1.10,2013-01-18 02:09:00,
2013-01-17 20:24:00,26.4,19.0,30.48,West,266,0.0,2.0,72,0.00,,,0.00,weatherlink.com 1.10,2013-01-18 02:24:00,
2013-01-17 20:39:00,26.1,19.0,30.49,West,266,2.0,3.0,73,0.00,,,0.00,weatherlink.com 1.10,2013-01-18 02:39:00,
2013-01-17 20:54:00,26.3,18.0,30.49,WSW,252,2.0,3.0,72,0.00,,,0.00,weatherlink.com 1.10,2013-01-18 02:54:00,
2013-01-17 21:09:00,26.5,19.0,30.49,WSW,248,0.0,2.0,73,0.00,,,0.00,weatherlink.com 1.10,2013-01-18 03:09:00,
2013-01-17 21:24:00,26.5,19.0,30.49,WSW,246,1.0,3.0,73,0.00,,,0.00,weatherlink.com 1.10,2013-01-18 03:24:00,
2013-01-17 21:39:00,26.4,19.0,30.49,WSW,246,0.0,2.0,73,0.00,,,0.00,weatherlink.com 1.10,2013-01-18 03:39:00,
2013-01-17 21:54:00,26.0,19.0,30.50,WSW,246,0.0,2.0,74,0.00,,,0.00,weatherlink.com 1.10,2013-01-18 03:54:00,
2013-01-17 22:09:00,26.1,19.0,30.49,WSW,246,1.0,2.0,74,0.00,,,0.00,weatherlink.com 1.10,2013-01-18 04:09:00,
2013-01-17 22:24:00,25.9,19.0,30.49,WSW,246,0.0,2.0,75,0.00,,,0.00,weatherlink.com 1.10,2013-01-18 04:24:00,
2013-01-17 22:39:00,25.6,19.0,30.49,WSW,244,0.0,3.0,76,0.00,,,0.00,weatherlink.com 1.10,2013-01-18 04:39:00,
2013-01-17 22:54:00,25.1,19.0,30.49,SW,236,2.0,3.0,76,0.00,,,0.00,weatherlink.com 1.10,2013-01-18 04:54:00,
2013-01-17 23:09:00,24.6,19.0,30.49,SW,236,0.0,0.0,78,0.00,,,0.00,weatherlink.com 1.10,2013-01-18 05:09:00,
2013-01-17 23:24:00,24.6,19.0,30.50,SW,236,0.0,3.0,79,0.00,,,0.00,weatherlink.com 1.10,2013-01-18 05:24:00,
2013-01-17 23:39:00,24.6,19.0,30.49,SW,235,2.0,2.0,78,0.00,,,0.00,weatherlink.com 1.10,2013-01-18 05:39:00,
2013-01-17 23:54:00,24.8,19.0,30.49,SW,215,1.0,2.0,77,0.00,,,0.00,weatherlink.com 1.10,2013-01-18 05:54:00,